Location: Czekanka
(50.4925°N, 19.2643°E)
Time: 06:53:23
(UTC+00:00)

SL-16 R/B - Pass Details

Date: 25 September 2024
Orbit: 842 x 846 km, 71.0° (Epoch: 05 October)

Event Time Altitude Azimuth Distance (km) Brightness Sun altitude
Rises 17:36:42 0° 210° (SSW) 3,393 5.6 -10.8°
Reaches altitude 10° 17:39:08 10° 211° (SSW) 2,461 4.9 -11.2°
Maximum altitude 17:44:48 83° 300° (WNW) 857 2.3 -12.1°
Drops below altitude 10° 17:50:30 10° 29° (NNE) 2,474 4.5 -13.0°
Sets 17:52:58 0° 30° (NNE) 3,413 5.2 -13.3°
